Погода в Кофс-Харборе

Австралия     30°18′09″S   153°07′15″E
темп.,
°C
ветер,
м/с
пор.,
м/с
влажн.,
%
обл.,
%
осадки,
мм/ч
давл.,
гПа
погр.,
м
8 марта, пн
пн823:00+19ссз278982 0.1 1016352
02:00+19ссз3118780 0.0 1015634
05:00+19ссз2128990 0.1 1014618
08:00+20ссз288560 0.0 1016430
11:00+26ссз375668 0.0 10151058
14:00+30ссз354791 0.0 10121525
17:00+26ссз376395 0.8 10121018
20:00+22сз1288100 0.1 101368
9 марта, вт
вт923:00+21ссз228499 0.1 1015101
02:00+19сз238257 0.0 101398
05:00+20сз227679 0.0 101390
08:00+20сз2475100 0.0 1014155
11:00+28ююв1244100 0.0 1014844
14:00+30вюв333927 0.0 10121388
17:00+25в126652 0.1 1012224
20:00+21ююз118284 0.1 101537
10 марта, ср
ср1023:00+19з127958 0.1 101629
02:00+19з12720 0.0 101627
05:00+18юз12761 0.0 101638
08:00+19ююз247835 0.0 1018161
11:00+23ю367546 0.1 1019778
14:00+24ююв357562 0.6 1018890
17:00+21юв259369 1.8 1018573
20:00+19юв169983 0.8 1020344
11 марта, чт
чт1123:00+18ю119988 2.3 102177
02:00+19ююз119999 0.9 102040
05:00+18юз119998 1.4 102037
08:00+19з019891 0.3 102143
11:00+21в129670 1.6 1021472
14:00+22всв2495100 4.3 1019663
17:00+21св2598100 7.6 1018601
20:00+19с1299100 1.9 1019114
12 марта, пт
пт1223:00+19сз119995 2.5 102046
02:00+18ссз159991 0.2 1018212
05:00+18ссз129996 0.2 101797
08:00+19с129999 0.0 1018127
11:00+20с249499 0.0 1018332
14:00+23с2592100 2.7 1016647
17:00+23с269396 8.3 1015569
20:00+20ссз299899 3.0 1016421